Location: Cudham
(51.3000°N, 0.0667°E)
Time: 21:31:01
(UTC+00:00)

Cosmos 1076 Rocket - Pass Details

Date: 19 May 2025
Orbit: 583 x 604 km, 82.5° (Epoch: 18 June)

Event Time Altitude Azimuth Distance (km) Brightness Sun altitude
Rises 20:27:37 0° 349° (NNW) 2,869 7.9 -5.4°
Reaches altitude 10° 20:29:50 10° 349° (N) 1,963 7.1 -5.7°
Maximum altitude 20:34:11 86° 263° (W) 613 3.6 -6.2°
Drops below altitude 10° 20:38:30 10° 173° (S) 1,948 5.7 -6.6°
Enters shadow 20:40:12 - 173° (S) 2,638 6.3 -6.8°
